www.pogodaiklimat.ru

Погода и климат >> Архив погоды >> Россия >> Кировская область >> Опарино


ПОГОДА в Опарино

  • Прогноз погоды в Опарино
  • Монитор погоды в Опарино

АРХИВ ПОГОДЫ в Опарино

Время (UTC), дата Ветер
(напр.,м/с)
 
Видим.   Явления Облачность Т
(С)
Тd
(С)
f
(%)
Тe
(С)
Тes
(С)
Комфортность P
(гПа)
Po
(гПа)
Тmin
(С)
Tmax
(С)
R
(мм)
R24
(мм)
S
(см)
09 13.01 ЮЗ 3-5
{6}
6000 м слаб. снег 10/0
[As op]
-10.6 -13.4 80 -17 -16 989.7 966.9
12 13.01 Ю 3-5
{7}
50 км {снег} 10/10 600 м
[Sc]
-10.0 -12.8 80 -16 -16 990.4 967.5
15 13.01 Ю 3-6
{7}
50 км {снег} 10/10 600 м
[Sc]
-9.8 -12.4 81 -16 -16 991.1 968.2 -9.8 1
18 13.01 Ю 3-4
{8}
9000 м слаб. снег 10/0
[As op]
-10.2 -13.0 80 -16 -16 992.3 969.4
21 13.01 ЮЗ 3-4
{7}
9000 м слаб. снег 10/0
[As op]
-10.1 -12.9 80 -16 -16 993.4 970.5
00 14.01 ЮЗ 2-3
{7}
9000 м слаб. снег 10/10 300 м
[Frnb Ns]
-9.9 -12.5 81 -14 -14 994.1 971.2
03 14.01 Ю 2-3
{6}
9000 м слаб. снег 10/0
[As op]
-9.4 -11.9 82 -14 -14 994.8 972.0 -10.3 0.6 37
06 14.01 Ю 2-2
{6}
50 км {снег} 10/10 600 м
[Sc]
-8.5 -10.0 89 -13 -13 996.7 973.9
09 14.01 Ю 2-4
{6}
9000 м слаб. снег 10/10 600 м
[Sc]
-8.3 -10.2 86 -13 -13 997.7 974.8
12 14.01 Ю 2-3
{6}
50 км {снег} 10/10 600 м
[Sc]
-7.8 -9.6 87 -12 -12 998.8 976.0
15 14.01 ЮЗ 2-4
{7}
50 км 10/10 600 м
[Sc]
-7.9 -9.3 90 -12 -12 999.5 976.7 -7.6 0.2
18 14.01 Ю 3-7
{8}
50 км 10/10 600 м
[Sc]
-8.0 -9.4 90 -14 -14 999.1 976.3
21 14.01 Ю 2-6
{8}
7000 м слаб. снег 10/0
[As op]
-8.2 -10.1 86 -13 -13 999.3 976.5
00 15.01 Ю 2-6
{8}
6000 м слаб. снег 10/0
[As op]
-8.0 -9.8 87 -12 -12 999.1 976.3
03 15.01 Ю 4-6
{8}
7000 м слаб. снег 10/0
[As op]
-7.6 -9.8 84 -14 -14 998.8 976.1 -8.2 1 38
06 15.01 Ю 4-5
{7}
50 км в посл. час снег 10/10 300 м
[Frnb Ns]
-6.5 -9.3 80 -13 -13 998.9 976.3
09 15.01 Ю 4-6
{8}
5000 м слаб. снег 10/0
[As op]
-5.2 -6.9 88 -12 -12 999.0 976.5
12 15.01 Ю 3-5
{8}
50 км {снег} 10/10 300 м
[Sc]
-4.8 -6.8 86 -10 -10 999.2 976.7
15 15.01 Ю 4-4
{8}
50 км 10/10 600 м
[Sc]
-5.8 -8.0 84 -12 -12 999.6 977.0 -4.6 0.6
18 15.01 Ю 3-5
{7}
50 км 10/10 600 м
[Sc]
-5.8 -7.6 87 -11 -11 999.6 997.0
21 15.01 Ю 3-4
{7}
8000 м слаб. снег 10/10 600 м
[Sc]
-6.0 -7.5 89 -12 -12 999.7 977.1
00 16.01 Ю 3-5
{7}
6000 м слаб. снег 10/0
[As op]
-6.2 -7.4 91 -12 -12 999.7 977.1
03 16.01 Ю 2-3
{6}
50 км {снег} 10/10 300 м
[Sc]
-4.4 -5.3 93 -9 -9 1000.1 977.5 -6.2 0.6 37
06 16.01 Ю 2-4
{7}
50 км 10/10 300 м
[Sc]
-4.0 -4.9 93 -8 -8 1001.2 978.6
09 16.01 Ю 1-3
{7}
50 км 10/10 300 м
[Sc]
-3.5 -4.3 94 -6 -6 1000.7 978.2
12 16.01 СВ 1-2
{4}
5000 м слаб. снег 10/0 300 м
[As op]
-3.3 -4.0 95 -6 -6 998.2 975.8
15 16.01 В 1-2
{4}
5000 м слаб. снег 10/0
[As op]
-2.9 -3.6 95 -5 -5 994.6 972.4 -2.9 3
18 16.01 СЗ 1-2
{4}
3300 м снег 10/0
[As op]
-3.7 -4.2 96 -6 -6 992.7 970.4
21 16.01 З 2-5
{6}
7000 м слаб. снег 10/10 600 м
[Cu Sc]
-4.8 -5.8 93 -9 -9 992.6 970.2
00 17.01 З 2-4
{6}
50 км {снег} 9/9 600 м
[Sc]
-6.4 -8.3 86 -11 -11 994.4 971.9
03 17.01 ЮЗ 3-5
{8}
50 км 10/10 600 м
[Sc]
-7.3 -10.3 79 -13 -13 996.3 973.6 -7.4 4 40
06 17.01 ЮЗ 3-4
{8}
50 км 9/9 600 м
[Sc]
-7.9 -11.0 78 -14 -14 997.2 974.4 -8.1
09 17.01 ЮЗ 4-5
{8}
7000 м слаб. снег 8/8 600 м
[Sc]
-7.4 -10.4 79 -14 -14 997.8 975.1
12 17.01 ЮЗ 5-5
{8}
50 км позёмок {снег} 10/10 600 м
[Sc]
-6.7 -9.1 83 -14 -14 998.6 976.0
15 17.01 ЮЗ 5-6
{9}
50 км позёмок 10/10 600 м
[Sc]
-6.6 -9.0 83 -14 -14 999.0 976.4 -2.9 0.3
18 17.01 Ю 3-6
{9}
50 км позёмок 10/10 600 м
[Sc]
-6.9 -8.5 88 -13 -13 998.2 975.5
21 17.01 Ю 5-7
{11}
7000 м слаб. снег {метель} 10/10 300 м
[Sc]
-7.0 -8.3 90 -15 -15 996.7 974.0
00 18.01 Ю 5-7
{10}
6000 м слаб. снег {метель} 10/0
[As op]
-6.4 -7.6 91 -14 -14 993.4 970.9
03 18.01 Ю 4-5
{10}
5000 м слаб. снег {метель} 10/0
[As op]
-5.9 -7.8 86 -12 -12 990.6 968.1 -7.0 2 40
06 18.01 Ю 4-8
{10}
5000 м слаб. снег {метель} 10/0
[As op]
-5.4 -7.2 87 -12 -12 989.0 966.7
09 18.01 ЮЗ 4-8
{10}
50 км в посл. час снег {метель} 10/10 600 м
[Sc]
-3.3 -4.7 90 -10 -10 989.8 967.5
12 18.01 ЮЗ 4-7
{9}
50 км {снег, метель} 9/9 600 м
[Sc]
-1.2 -4.5 78 -7 -7 992.1 970.0
15 18.01 ЮЗ 2-6
{9}
50 км 10/10 600 м
[Sc]
-1.0 -4.2 79 -5 -5 993.6 971.5 -0.9 2
18 18.01 ЮЗ 3-5
{11}
50 км 8/8 600 м
[Sc]
-1.9 -7.6 65 -7 -7 995.6 973.3
21 18.01 ЮЗ 3-4
{9}
50 км 9/9 600 м
[Sc]
-3.0 -8.0 68 -8 -8 997.0 974.6
00 19.01 ЮЗ 2-3
{7}
50 км 10/10 600 м
[Sc]
-3.9 -8.0 73 -8 -8 997.4 974.9
03 19.01 штиль 0
{6}
7000 м слаб. снег 10/0
[As op]
-5.4 -6.8 90 -6 -6 996.8 974.2 -5.4 1 40
06 19.01 С 2-4
{6}
2200 м снег 10/0
[As op]
-6.9 -8.1 91 -11 -11 997.3 974.6 -7.1
09 19.01 З 2-3
{7}
50 км {снег} 8/8 600 м
[Sc]
-8.5 -10.8 83 -13 -13 1000.6 977.7
12 19.01 З 1-2
{6}
50 км {снег} ясно -9.5 -12.1 81 -12 -12 1002.6 979.6
15 19.01 ЮЗ 1-1
{3}
50 км ясно -12.5 -14.5 85 -15 -15 1004.4 981.1 -5.4 3
18 19.01 ЮВ 1-1
{3}
50 км 9/9 600 м
[Sc]
-12.6 -14.6 85 -15 -15 1004.7 981.4
21 19.01 Ю 1-1
{2}
7000 м слаб. снег 10/0
[As op]
-11.0 -13.0 85 -13 -13 1004.8 981.6
00 20.01 ЮЗ 1-1
{2}
50 км {снег} ясно -12.0 -14.0 85 -14 -14 1005.9 982.5
03 20.01 Ю 1-2
{4}
50 км 3/0
[Cc]
-15.0 -17.0 85 -18 -18 1006.8 983.1 -15.0 0.4 45
06 20.01 Ю 1-1
{2}
50 км 3/3 600 м
[Sc]
-15.7 -17.6 85 -18 -18 1007.7 983.9 -16.5

 

Местоположение метеостанции Опарино (Кировская область, Россия): широта 59.85 долгота 48.28 высота над уровнем моря 180 м.

В архиве по умолчанию представлена погода в Опарино за последнюю неделю. Архивные данные за месяц целиком и за предыдущие месяцы, начиная с января 2011 года, Вы можете получить, выбрав интересующий диапазон дат из раскрывающегося списка и нажав кнопку "Ввод!".


*Определитесь, кто Вы:
робот инопланетянин человек

Внимание! Время в таблицах - всемирное. Для получения местного времени необходимо прибавить поправку, которая равна 3 ч.

Смотрите также архив погоды в соседних городах и на ближайших метеорологических станциях:

Погода в Объячеве (Коми, Россия) (95 км)
Погода в Лальске (Кировская область, Россия) (102 км)
Погода в Даровском (Кировская область, Россия) (121 км)
Погода в Вохме (Костромская область, Россия) (133 км)
Погода в Вилегодском (Архангельская область, Россия) (142 км)
Погода в Великом Устюге (Вологодская область, Россия) (150 км)
Погода в Нагорске (Кировская область, Россия) (155 км)
Погода в Кирове (Кировская область, Россия) (159 км)
Погода в Никольске (Вологодская область, Россия) (162 км)
Погода в Койгородке (Коми, Россия) (163 км)

Пояснения к столбцам:

Ветер - указаны скорость ветра в м/с - средняя за 10 мин, порывы в срок и между сроками (в фигурных скобках) и направление, откуда дует ветер: С - северный, СВ - северо-восточный, В - восточный, ЮВ - юго-восточный, Ю - южный, ЮЗ - юго-западный, З - западный, СЗ - северо-западный.
Видимость - горизонтальная дальность видимости в метрах или километрах. При видимости от 1 до 10 км при отсутствии осадков обычно наблюдается дымка, при ухудшении видимости до 1 км и менее - туман. В сухую погоду видимость может ухудшаться дымом, пылью или мглою.
Явления - указаны атмосферные явления, наблюдавшиеся в срок или в последний час перед сроком; фигурными скобками обозначены явления, наблюдавшиеся между сроками (за 1-3 часа до срока); квадратными скобками обозначены град или гололедные отложения с указанием их диаметра в мм.
Облачность - указаны через наклонную черту общая и нижняя облачность в баллах и высота нижней границы облаков в метрах; квадратными скобками обозначены формы облаков: Ci - перистые, Cs - перисто-слоистые, Cc - перисто-кучевые, Ac - высококучевые, As - высокослоистые, Sc - слоисто-кучевые, Ns - слоисто-дождевые, Cu - кучевые, Cb - кучево-дождевые. Подробнее классификацию облаков см. в Атласе облаков (PDF).
T - Температура воздуха - температура, измеренная на высоте 2 м над землей.
Td - Температура точки росы - температура, при понижении до которой содержащийся в воздухе водяной пар достигнет насыщения.
f - Относительная влажность воздуха - влажноcть воздуха, измеренная на высоте 2 м над землей.
Te - Эффективная температура - температура, которую ощущает одетый по сезону человек в тени. Характеристика душности погоды. При расчете учитывается влияние влажности воздуха и скорости ветра на теплоощущения человека.
Tes - Эффективная температура на солнце - температура, которую ощущает человек, с поправкой на солнечный нагрев. Характеристика знойности погоды. Зависит от высоты солнца над горизонтом, облачности и скорости ветра. Ночью, в пасмурную погоду, а также при ветре 12 м/с и более поправка равна нулю.
P - Атмосферное давление - приведенное к уровню моря атмосферное давление.
Po - Атмосферное давление - измеренное на уровне метеостанции атмосферное давление.
Tmin - Минимальная температура - минимум температуры воздуха на высоте 2 м над землей.
Tmax - Максимальная температура - максимум температуры воздуха на высоте 2 м над землей.
R - Количество осадков - Количество выпавших осадков за период времени, мм. При наведении курсора мыши на число - период времени, за который выпало указанное количество осадков.
R24 - Количество осадков - Количество выпавших осадков за 24 часа, мм.
S - Снежный покров - Высота снежного покрова, см. При наведении курсора мыши на число - состояние снежного покрова и степень покрытия местности в баллах.